﻿_id,日時,平均風速(m/s),平均風向,最大瞬間風速(m/s),最大風速時風向,気温(℃),湿度(%),10分間移動積算雨量(mm),1時間移動積算雨量(mm),日雨量(mm),累計雨量(mm)
1,2023-03-27T00:00:00,0.3,南東,0.7,南,7.9,93.2,0,0,16,18
2,2023-03-27T00:01:00,0.3,南東,0.7,南,7.9,93.2,0,0,0,18
3,2023-03-27T00:02:00,0.2,静穏,0.7,南,7.9,93.5,0,0,0,18
4,2023-03-27T00:03:00,0.2,静穏,0.7,南,7.9,93.6,0,0,0,18
5,2023-03-27T00:04:00,0.2,静穏,0.7,南,7.9,93.8,0,0,0,18
6,2023-03-27T00:05:00,0.2,静穏,0.7,南,7.9,93.8,0,0,0,18
7,2023-03-27T00:06:00,0.1,静穏,0.7,南,8,93.9,0,0,0,18
8,2023-03-27T00:07:00,0.1,静穏,0.7,南南西,8,93.9,0,0,0,18
9,2023-03-27T00:08:00,0.2,静穏,0.7,南南西,7.9,93.6,0,0,0,18
10,2023-03-27T00:09:00,0.2,静穏,0.7,南南西,7.8,93.6,0,0,0,18
11,2023-03-27T00:10:00,0.2,静穏,0.7,南南西,7.9,93.9,0,0,0,18
12,2023-03-27T00:11:00,0.3,西南西,0.7,南南西,7.9,94,0,0,0,18
13,2023-03-27T00:12:00,0.3,南西,0.7,南南西,7.9,94,0,0,0,18
14,2023-03-27T00:13:00,0.3,南西,0.7,南南西,7.8,93.9,0,0,0,18
15,2023-03-27T00:14:00,0.3,南南西,0.8,南南東,7.8,93.9,0,0,0,18
16,2023-03-27T00:15:00,0.3,南,1.1,南東,7.8,94,0,0,0,18
17,2023-03-27T00:16:00,0.4,南,1.4,南,7.7,94,0,0,0,18
18,2023-03-27T00:17:00,0.4,南,1.4,南,7.7,93.9,0,0,0,18
19,2023-03-27T00:18:00,0.4,南,1.4,南,7.7,94,0,0,0,18
20,2023-03-27T00:19:00,0.4,南南東,1.7,南,7.7,94.3,0,0,0,18
21,2023-03-27T00:20:00,0.5,南南東,1.7,南,7.8,94.7,0,0,0,18
22,2023-03-27T00:21:00,0.6,南南東,1.7,南,7.8,94.6,0,0,0,18
23,2023-03-27T00:22:00,0.7,南南東,1.7,南,7.8,94.6,0,0,0,18
24,2023-03-27T00:23:00,0.7,南南東,1.7,南,7.7,94.5,0,0,0,18
25,2023-03-27T00:24:00,0.8,南南東,1.7,南,7.8,94.6,0,0,0,18
26,2023-03-27T00:25:00,0.8,南南東,1.7,南,7.7,94.6,0,0,0,18
27,2023-03-27T00:26:00,0.8,南南東,1.7,南,7.9,94.6,0,0,0,18
28,2023-03-27T00:27:00,0.8,南南東,1.7,南,7.9,94.7,0,0,0,18
29,2023-03-27T00:28:00,0.8,南東,1.7,南,7.9,94.7,0,0,0,18
30,2023-03-27T00:29:00,0.7,南東,1.7,南南東,7.9,94.7,0,0,0,18
31,2023-03-27T00:30:00,0.7,南東,1.7,南南東,7.9,94.6,0,0,0,18
32,2023-03-27T00:31:00,0.7,東南東,1.7,南南東,7.8,94.6,0,0,0,18
33,2023-03-27T00:32:00,0.6,東南東,1.7,南南東,7.8,94.5,0,0,0,18
34,2023-03-27T00:33:00,0.6,東,1.7,南南東,7.8,94.6,0,0,0,18
35,2023-03-27T00:34:00,0.5,東,1.7,南南東,7.8,94.5,0,0,0,18
36,2023-03-27T00:35:00,0.5,東,1,東,7.8,94.6,0,0,0,18
37,2023-03-27T00:36:00,0.5,東北東,1,東,7.8,94.6,0,0,0,18
38,2023-03-27T00:37:00,0.5,東北東,1,東,7.8,94.9,0,0,0,18
39,2023-03-27T00:38:00,0.5,東北東,1,東,7.7,94.5,0,0,0,18
40,2023-03-27T00:39:00,0.5,東北東,1,東,7.7,94.4,0,0,0,18
41,2023-03-27T00:40:00,0.4,東北東,1,東,7.8,94.6,0,0,0,18
42,2023-03-27T00:41:00,0.4,東北東,0.8,東北東,7.8,94.9,0,0,0,18
43,2023-03-27T00:42:00,0.3,東北東,0.7,東北東,7.8,95,0,0,0,18
44,2023-03-27T00:43:00,0.4,東北東,1.1,東南東,7.8,94.8,0,0,0,18
45,2023-03-27T00:44:00,0.5,東,1.7,南東,7.7,94.6,0,0,0,18
46,2023-03-27T00:45:00,0.6,東,1.7,南東,7.7,94.5,0,0,0,18
47,2023-03-27T00:46:00,0.7,東,1.7,南東,7.7,94.6,0,0,0,18
48,2023-03-27T00:47:00,0.8,東,1.8,東南東,7.7,94.6,0,0,0,18
49,2023-03-27T00:48:00,0.9,東南東,2,東南東,7.7,94.7,0,0,0,18
50,2023-03-27T00:49:00,1.1,東南東,2,東南東,7.7,94.8,0,0,0,18
51,2023-03-27T00:50:00,1.2,東南東,2.1,東南東,7.7,94.8,0,0,0,18
52,2023-03-27T00:51:00,1.3,東南東,2.1,東南東,7.7,94.9,0,0,0,18
53,2023-03-27T00:52:00,1.3,東南東,2.1,東南東,7.7,95,0,0,0,18
54,2023-03-27T00:53:00,1.3,東南東,2.1,東南東,7.7,94.9,0,0,0,18
55,2023-03-27T00:54:00,1.3,東南東,2.1,東南東,7.7,94.9,0,0,0,18
56,2023-03-27T00:55:00,1.3,東南東,2.1,東南東,7.8,95.1,0,0,0,18
57,2023-03-27T00:56:00,1.2,東南東,2.1,東南東,7.8,95.3,0,0,0,18
58,2023-03-27T00:57:00,1.2,東南東,2.1,東南東,7.7,94.8,0,0,0,18
59,2023-03-27T00:58:00,1,東南東,2.1,東南東,7.7,94.7,0,0,0,18
60,2023-03-27T00:59:00,0.9,東南東,2.1,東南東,7.6,94.6,0,0,0,18
61,2023-03-27T01:00:00,0.8,東南東,2.1,南東,7.7,95,0,0,0,18
62,2023-03-27T01:01:00,0.7,東,1.6,東南東,7.7,95,0,0,0,18
63,2023-03-27T01:02:00,0.7,東,1.6,東南東,7.6,94.9,0,0,0,18
64,2023-03-27T01:03:00,0.7,東北東,1.6,東南東,7.6,94.8,0,0,0,18
65,2023-03-27T01:04:00,0.7,北東,1.6,東南東,7.6,95,0,0,0,18
66,2023-03-27T01:05:00,0.7,北北東,1.6,東南東,7.6,95.1,0,0,0,18
67,2023-03-27T01:06:00,0.6,北北東,1.4,南東,7.6,95.1,0,0,0,18
68,2023-03-27T01:07:00,0.6,北北東,1.2,南南東,7.5,95,0,0,0,18
69,2023-03-27T01:08:00,0.6,北,1.2,南南東,7.6,95.1,0,0,0,18
70,2023-03-27T01:09:00,0.6,北北西,1.2,南南東,7.6,95.2,0,0,0,18
71,2023-03-27T01:10:00,0.6,西北西,1.2,南南東,7.6,95.1,0,0,0,18
72,2023-03-27T01:11:00,0.6,西南西,1.2,南南東,7.5,94.8,0,0,0,18
73,2023-03-27T01:12:00,0.6,南南西,1.2,南南東,7.6,95.3,0,0,0,18
74,2023-03-27T01:13:00,0.7,南,1.4,南南東,7.6,95.1,0,0,0,18
75,2023-03-27T01:14:00,0.7,南,2.1,南,7.5,94.9,0,0,0,18
76,2023-03-27T01:15:00,0.8,南,2.4,南南東,7.5,94.8,0,0,0,18
77,2023-03-27T01:16:00,0.8,南,2.4,南南東,7.4,94.7,0,0,0,18
78,2023-03-27T01:17:00,0.8,南,2.4,南南東,7.4,94.6,0,0,0,18
79,2023-03-27T01:18:00,0.8,南,2.4,南南東,7.4,95.1,0,0,0,18
80,2023-03-27T01:19:00,0.8,南,2.4,南南東,7.4,95.2,0,0,0,18
81,2023-03-27T01:20:00,0.8,南南東,2.4,南南東,7.4,95.2,0,0,0,18
82,2023-03-27T01:21:00,0.9,南南東,2.4,南南東,7.4,95.1,0,0,0,18
83,2023-03-27T01:22:00,0.9,南南東,2.4,南南東,7.4,95.1,0,0,0,18
84,2023-03-27T01:23:00,0.9,南南東,2.4,南南東,7.5,95.2,0,0,0,18
85,2023-03-27T01:24:00,0.9,南東,2.4,南南東,7.5,95.2,0,0,0,18
86,2023-03-27T01:25:00,0.9,南東,2.1,東南東,7.5,95.2,0,0,0,18
87,2023-03-27T01:26:00,1,南東,2.1,東南東,7.6,95.2,0,0,0,18
88,2023-03-27T01:27:00,1.1,南東,2.4,南東,7.6,95.1,0,0,0,18
89,2023-03-27T01:28:00,1.2,南東,2.4,南東,7.7,95.1,0,0,0,18
90,2023-03-27T01:29:00,1.3,南東,2.4,南東,7.6,94.9,0,0,0,18
91,2023-03-27T01:30:00,1.3,南東,2.4,南東,7.9,95.4,0,0,0,18
92,2023-03-27T01:31:00,1.3,南東,2.4,南東,7.8,95.4,0,0,0,18
93,2023-03-27T01:32:00,1.2,南東,2.4,南東,7.7,94.7,0,0,0,18
94,2023-03-27T01:33:00,1.1,南東,2.4,南東,7.5,94.1,0,0,0,18
95,2023-03-27T01:34:00,1.1,東南東,2.4,南東,7.4,93.8,0,0,0,18
96,2023-03-27T01:35:00,1.1,東南東,2.4,南東,7.3,93.9,0,0,0,18
97,2023-03-27T01:36:00,1,東,2.4,南東,7.2,94,0,0,0,18
98,2023-03-27T01:37:00,0.9,東,1.9,南東,7.2,94.3,0,0,0,18
99,2023-03-27T01:38:00,0.9,東北東,1.9,南東,7.2,94.4,0,0,0,18
100,2023-03-27T01:39:00,1,東北東,2,北北東,7.1,94.2,0,0,0,18
101,2023-03-27T01:40:00,1,北東,2,北北東,7,94.2,0,0,0,18
102,2023-03-27T01:41:00,1,北東,2,北北東,7,94.1,0,0,0,18
103,2023-03-27T01:42:00,1.1,北東,2,北北東,6.9,94.3,0,0,0,18
104,2023-03-27T01:43:00,1.1,北東,2,北北東,6.9,94.2,0,0,0,18
105,2023-03-27T01:44:00,1.1,北北東,2,北北東,6.9,94.3,0,0,0,18
106,2023-03-27T01:45:00,1.1,北東,2,北北東,6.9,94.6,0,0,0,18
107,2023-03-27T01:46:00,1,北東,2,北北東,7,95,0,0,0,18
108,2023-03-27T01:47:00,1,北東,2,北北東,7,94.9,0,0,0,18
109,2023-03-27T01:48:00,1,北東,2,北北東,7.1,95.2,0,0,0,18
110,2023-03-27T01:49:00,0.9,北東,1.8,北北東,7,94.9,0,0,0,18
111,2023-03-27T01:50:00,0.9,東北東,1.8,北北東,7,94.8,0,0,0,18
112,2023-03-27T01:51:00,0.8,東北東,1.7,北北東,7,94.9,0,0,0,18
113,2023-03-27T01:52:00,0.7,東北東,1.6,北東,7,95,0,0,0,18
114,2023-03-27T01:53:00,0.7,東北東,1.4,北北東,7,95.1,0,0,0,18
115,2023-03-27T01:54:00,0.6,東,1.1,東南東,7,95.2,0,0,0,18
116,2023-03-27T01:55:00,0.7,東,1.1,東南東,7,95.2,0,0,0,18
117,2023-03-27T01:56:00,0.7,東,1.5,東南東,7,95.2,0,0,0,18
118,2023-03-27T01:57:00,0.7,東,1.5,東南東,7,95.2,0,0,0,18
119,2023-03-27T01:58:00,0.8,東,1.7,南南東,6.9,94.9,0,0,0,18
120,2023-03-27T01:59:00,0.8,東南東,1.7,南南東,6.8,94.8,0,0,0,18
121,2023-03-27T02:00:00,0.8,東南東,1.7,南南東,6.8,94.9,0,0,0,18
122,2023-03-27T02:01:00,0.8,東南東,1.7,南南東,6.8,95,0,0,0,18
123,2023-03-27T02:02:00,0.9,南東,1.8,南東,6.9,95.1,0,0,0,18
124,2023-03-27T02:03:00,0.9,南東,1.8,南東,7,95.4,0,0,0,18
125,2023-03-27T02:04:00,0.9,南東,1.8,南東,7.1,95.4,0,0,0,18
126,2023-03-27T02:05:00,0.9,南東,1.8,南東,7.2,95.4,0,0,0,18
127,2023-03-27T02:06:00,0.8,南南東,1.8,南東,7,95.1,0,0,0,18
128,2023-03-27T02:07:00,0.8,南南東,1.8,南東,6.8,94.9,0,0,0,18
129,2023-03-27T02:08:00,0.7,南,1.8,南東,6.8,94.8,0,0,0,18
130,2023-03-27T02:09:00,0.7,南南西,1.8,南東,6.7,94.8,0,0,0,18
131,2023-03-27T02:10:00,0.7,南西,1.8,南東,6.8,94.9,0,0,0,18
132,2023-03-27T02:11:00,0.7,北北西,2,北東,6.6,94.6,0,0,0,18
133,2023-03-27T02:12:00,0.7,北,2,北東,6.6,94.7,0,0,0,18
134,2023-03-27T02:13:00,0.6,北,2,北東,6.7,95.1,0,0,0,18
135,2023-03-27T02:14:00,0.6,北,2,北東,6.7,95.4,0,0,0,18
136,2023-03-27T02:15:00,0.6,北,2,北東,6.8,95.3,0,0,0,18
137,2023-03-27T02:16:00,0.7,北北東,2,北東,6.7,95.2,0,0,0,18
138,2023-03-27T02:17:00,0.7,北北東,2,北東,6.6,94.9,0,0,0,18
139,2023-03-27T02:18:00,0.8,北北東,2,北東,6.6,94.8,0,0,0,18
140,2023-03-27T02:19:00,0.9,北北東,2,北東,6.6,95.2,0,0,0,18
141,2023-03-27T02:20:00,0.9,北東,2,北東,6.6,95.2,0,0,0,18
142,2023-03-27T02:21:00,1,北東,2,北東,6.5,95,0,0,0,18
143,2023-03-27T02:22:00,1,北東,2,北東,6.5,95.1,0,0,0,18
144,2023-03-27T02:23:00,1,北北東,2,北東,6.5,95.2,0,0,0,18
145,2023-03-27T02:24:00,1.1,北東,2,北東,6.6,95.2,0,0,0,18
146,2023-03-27T02:25:00,1.2,北東,2,北東,6.5,95.2,0,0,0,18
147,2023-03-27T02:26:00,1.1,北東,2,北東,6.5,95.2,0,0,0,18
148,2023-03-27T02:27:00,1,東北東,2,北東,6.5,95.2,0,0,0,18
149,2023-03-27T02:28:00,0.9,東北東,2,北東,6.5,95.2,0,0,0,18
150,2023-03-27T02:29:00,0.8,東北東,2,北東,6.5,95.2,0,0,0,18
151,2023-03-27T02:30:00,0.7,東,2,北東,6.5,95.2,0,0,0,18
152,2023-03-27T02:31:00,0.6,東,1.6,南東,6.6,95.3,0,0,0,18
153,2023-03-27T02:32:00,0.7,東南東,1.6,南東,6.7,95.4,0,0,0,18
154,2023-03-27T02:33:00,0.6,東南東,1.6,南東,6.9,95.5,0,0,0,18
155,2023-03-27T02:34:00,0.7,東南東,2,東南東,6.9,95.5,0,0,0,18
156,2023-03-27T02:35:00,0.7,東南東,2.4,南東,6.8,95.3,0,0,0,18
157,2023-03-27T02:36:00,0.8,東南東,2.4,南東,7,95.3,0,0,0,18
158,2023-03-27T02:37:00,0.9,東,2.4,南東,7.1,95.3,0,0,0,18
159,2023-03-27T02:38:00,1,東南東,2.4,南東,7.2,95.3,0,0,0,18
160,2023-03-27T02:39:00,1,東南東,2.4,南東,7,95.2,0,0,0,18
161,2023-03-27T02:40:00,1.1,東南東,2.4,南東,7,94.9,0,0,0,18
162,2023-03-27T02:41:00,1,東南東,2.4,南東,7,95,0,0,0,18
163,2023-03-27T02:42:00,1,東南東,2.4,南東,6.9,94.8,0,0,0,18
164,2023-03-27T02:43:00,1.1,東南東,2.9,東南東,6.8,94.7,0,0,0,18
165,2023-03-27T02:44:00,1.1,東南東,2.9,東南東,7,94.6,0,0,0,18
166,2023-03-27T02:45:00,1,東南東,2.9,東南東,7,94.7,0,0,0,18
167,2023-03-27T02:46:00,1,東南東,2.9,東南東,7,94.6,0,0,0,18
168,2023-03-27T02:47:00,1,東南東,2.9,東南東,7.1,94.4,0,0,0,18
169,2023-03-27T02:48:00,1.1,東南東,2.9,東南東,6.9,93.8,0,0,0,18
170,2023-03-27T02:49:00,1.2,東,2.9,東南東,6.8,93.7,0,0,0,18
171,2023-03-27T02:50:00,1.2,東,2.9,東南東,7,94,0,0,0,18
172,2023-03-27T02:51:00,1.3,東,2.9,東南東,7,93.9,0,0,0,18
173,2023-03-27T02:52:00,1.3,東北東,2.9,東南東,7,93.7,0,0,0,18
174,2023-03-27T02:53:00,1.3,東北東,2.5,北,6.9,93.5,0,0,0,18
175,2023-03-27T02:54:00,1.1,東北東,2.5,北,6.9,93.4,0,0,0,18
176,2023-03-27T02:55:00,1.2,東北東,2.5,北,6.9,93.2,0,0,0,18
177,2023-03-27T02:56:00,1.2,東北東,2.5,北,6.8,93.1,0,0,0,18
178,2023-03-27T02:57:00,1.2,東,2.5,北,6.8,92.7,0,0,0,18
179,2023-03-27T02:58:00,1.1,南東,2.3,東北東,6.7,92.5,0,0,0,18
180,2023-03-27T02:59:00,1.1,南南東,2.3,東北東,6.7,92.5,0,0,0,18
181,2023-03-27T03:00:00,1.1,南,2.3,東北東,6.8,92.6,0,0,0,18
182,2023-03-27T03:01:00,1,南,1.7,南南西,6.8,92.8,0,0,0,18
183,2023-03-27T03:02:00,1,南,1.7,南南西,6.9,92.9,0,0,0,18
184,2023-03-27T03:03:00,1,南,1.7,南南西,6.8,92.6,0,0,0,18
185,2023-03-27T03:04:00,1.1,南,2.1,南南東,6.8,92.5,0,0,0,18
186,2023-03-27T03:05:00,1.1,南,2.1,南南東,6.8,92.5,0,0,0,18
187,2023-03-27T03:06:00,1.2,南,2.1,南南東,6.8,92.5,0,0,0,18
188,2023-03-27T03:07:00,1.1,南南東,2.1,南南東,6.9,92.6,0,0,0,18
189,2023-03-27T03:08:00,1.1,南南東,2.1,南南東,7,92.6,0,0,0,18
190,2023-03-27T03:09:00,1.1,南南東,2.1,南南東,7,93,0,0,0,18
191,2023-03-27T03:10:00,1.1,南南東,2.1,南南東,6.9,92,0,0,0,18
192,2023-03-27T03:11:00,1.1,南東,2.1,南南東,6.8,91.8,0,0,0,18
193,2023-03-27T03:12:00,1.2,南東,2.1,南南東,6.7,91.2,0,0,0,18
194,2023-03-27T03:13:00,1.2,南東,2.1,南南東,6.5,91.1,0,0,0,18
195,2023-03-27T03:14:00,1.1,東南東,2.1,南東,6.5,91.3,0,0,0,18
196,2023-03-27T03:15:00,1,東南東,2.1,南東,6.5,91.6,0,0,0,18
197,2023-03-27T03:16:00,0.9,東,1.9,南,6.5,91.8,0,0,0,18
198,2023-03-27T03:17:00,1,東,1.9,南,6.6,92,0,0,0,18
199,2023-03-27T03:18:00,1,東,2,東南東,6.6,92.3,0,0,0,18
200,2023-03-27T03:19:00,1.1,東,2,東南東,6.7,92.4,0,0,0,18
201,2023-03-27T03:20:00,1.1,東,2,東南東,6.7,92.5,0,0,0,18
202,2023-03-27T03:21:00,1.1,東,2,東南東,6.7,92.3,0,0,0,18
203,2023-03-27T03:22:00,1,東南東,2,東南東,6.6,92.2,0,0,0,18
204,2023-03-27T03:23:00,0.9,東南東,2,東南東,6.6,92.3,0,0,0,18
205,2023-03-27T03:24:00,1,東南東,2,東南東,6.5,92,0,0,0,18
206,2023-03-27T03:25:00,1,東南東,2,東南東,6.4,91.6,0,0,0,18
207,2023-03-27T03:26:00,1.1,東南東,2,東南東,6.3,91.6,0,0,0,18
208,2023-03-27T03:27:00,1,東南東,2,東南東,6.4,92,0,0,0,18
209,2023-03-27T03:28:00,0.9,東南東,1.7,南東,6.5,92.8,0,0,0,18
210,2023-03-27T03:29:00,0.8,東南東,1.5,北,6.7,93.2,0,0,0,18
211,2023-03-27T03:30:00,0.7,東,1.5,北,6.7,93.1,0,0,0,18
212,2023-03-27T03:31:00,0.7,北東,1.5,北,6.6,92.5,0,0,0,18
213,2023-03-27T03:32:00,0.7,北北東,1.5,北,6.5,92.1,0,0,0,18
214,2023-03-27T03:33:00,0.7,北北東,1.5,北,6.4,92.1,0,0,0,18
215,2023-03-27T03:34:00,0.7,北北東,1.5,北,6.4,92.3,0,0,0,18
216,2023-03-27T03:35:00,0.6,北北東,1.4,北東,6.4,92.5,0,0,0,18
217,2023-03-27T03:36:00,0.5,北北東,1.4,北東,6.4,92.5,0,0,0,18
218,2023-03-27T03:37:00,0.4,北北東,1.3,北北東,6.3,92.3,0,0,0,18
219,2023-03-27T03:38:00,0.4,北北東,1.3,北北東,6.3,92.3,0,0,0,18
220,2023-03-27T03:39:00,0.5,北北東,1.3,北北東,6.3,92.3,0,0,0,18
221,2023-03-27T03:40:00,0.5,北北東,1.3,北北東,6.4,92.8,0,0,0,18
222,2023-03-27T03:41:00,0.5,北東,1.1,東,6.4,93,0,0,0,18
223,2023-03-27T03:42:00,0.5,北東,1.1,東,6.5,93.1,0,0,0,18
224,2023-03-27T03:43:00,0.6,東北東,1.5,東南東,6.5,93.1,0,0,0,18
225,2023-03-27T03:44:00,0.7,東,1.8,東南東,6.5,93,0,0,0,18
226,2023-03-27T03:45:00,0.8,東,1.8,東南東,6.4,92.9,0,0,0,18
227,2023-03-27T03:46:00,0.8,東,1.8,東南東,6.4,93,0,0,0,18
228,2023-03-27T03:47:00,1,東,2.4,北北東,6.4,93.1,0,0,0,18
229,2023-03-27T03:48:00,1.1,東,2.5,北北東,6.3,92.8,0,0,0,18
230,2023-03-27T03:49:00,1.1,東,2.5,北北東,6.3,93,0,0,0,18
231,2023-03-27T03:50:00,1.1,東,2.5,北北東,6.4,93.2,0,0,0,18
232,2023-03-27T03:51:00,1.1,東,2.5,北北東,6.4,93.3,0,0,0,18
233,2023-03-27T03:52:00,1.2,東,2.5,北北東,6.4,93.2,0,0,0,18
234,2023-03-27T03:53:00,1.2,東,2.5,北北東,6.3,93.1,0,0,0,18
235,2023-03-27T03:54:00,1.1,東北東,2.5,北北東,6.3,93.1,0,0,0,18
236,2023-03-27T03:55:00,1.1,東北東,2.5,北北東,6.3,93.2,0,0,0,18
237,2023-03-27T03:56:00,1.1,東北東,2.5,北北東,6.3,93.4,0,0,0,18
238,2023-03-27T03:57:00,1,東,2.5,北北東,6.4,93.6,0,0,0,18
239,2023-03-27T03:58:00,0.9,東,1.6,東北東,6.4,93.8,0,0,0,18
240,2023-03-27T03:59:00,1,東,1.6,東北東,6.5,93.8,0,0,0,18
241,2023-03-27T04:00:00,1,東,1.6,東北東,6.5,93.8,0,0,0,18
242,2023-03-27T04:01:00,1,東,1.6,東北東,6.5,93.9,0,0,0,18
243,2023-03-27T04:02:00,0.9,東,1.6,東北東,6.5,93.7,0,0,0,18
244,2023-03-27T04:03:00,0.9,東,1.4,東南東,6.4,93.5,0,0,0,18
245,2023-03-27T04:04:00,0.8,東,1.4,東南東,6.4,93.5,0,0,0,18
246,2023-03-27T04:05:00,0.9,東,1.4,東南東,6.4,93.6,0,0,0,18
247,2023-03-27T04:06:00,0.9,東,1.5,南東,6.5,93.9,0,0,0,18
248,2023-03-27T04:07:00,1,東,1.7,東南東,6.5,94,0,0,0,18
249,2023-03-27T04:08:00,1,東,1.7,東南東,6.5,93.8,0,0,0,18
250,2023-03-27T04:09:00,1.1,東,1.9,東,6.5,93.8,0,0,0,18
251,2023-03-27T04:10:00,1.2,東南東,1.9,東,6.5,93.8,0,0,0,18
252,2023-03-27T04:11:00,1.2,東南東,1.9,東,6.5,94,0,0,0,18
253,2023-03-27T04:12:00,1.2,東南東,1.9,東,6.4,93.9,0,0,0,18
254,2023-03-27T04:13:00,1.2,東南東,1.9,東,6.4,93.8,0,0,0,18
255,2023-03-27T04:14:00,1.2,東,1.9,東,6.4,93.8,0,0,0,18
256,2023-03-27T04:15:00,1.2,東,1.9,東,6.4,93.9,0,0,0,18
257,2023-03-27T04:16:00,1.2,東北東,1.9,東,6.4,93.9,0,0,0,18
258,2023-03-27T04:17:00,1.1,東北東,1.9,東,6.4,94,0,0,0,18
259,2023-03-27T04:18:00,1.1,東北東,1.9,東,6.4,94.1,0,0,0,18
260,2023-03-27T04:19:00,1,東北東,1.8,東南東,6.4,94.3,0,0,0,18
261,2023-03-27T04:20:00,0.9,東北東,1.4,北東,6.4,94.2,0,0,0,18
262,2023-03-27T04:21:00,0.9,東北東,1.4,北東,6.4,94.2,0,0,0,18
263,2023-03-27T04:22:00,0.8,東北東,1.4,北東,6.4,94.1,0,0,0,18
264,2023-03-27T04:23:00,0.8,東北東,1.4,北東,6.4,94.4,0,0,0,18
265,2023-03-27T04:24:00,0.8,東北東,1.4,北東,6.4,94.7,0,0,0,18
266,2023-03-27T04:25:00,0.7,東北東,1.4,北東,6.4,94.4,0,0,0,18
267,2023-03-27T04:26:00,0.6,東北東,1.3,東北東,6.4,94.3,0,0,0,18
268,2023-03-27T04:27:00,0.6,東北東,1.3,東北東,6.4,94.4,0,0,0,18
269,2023-03-27T04:28:00,0.6,東北東,1.3,東北東,6.4,94.5,0,0,0,18
270,2023-03-27T04:29:00,0.5,東北東,1.1,北東,6.4,94.7,0,0,0,18
271,2023-03-27T04:30:00,0.6,東北東,1.6,北北東,6.4,94.6,0,0,0,18
272,2023-03-27T04:31:00,0.6,北東,1.6,北北東,6.4,94.6,0,0,0,18
273,2023-03-27T04:32:00,0.6,北東,1.6,北北東,6.4,94.6,0,0,0,18
274,2023-03-27T04:33:00,0.7,北東,1.6,北北東,6.4,94.6,0,0,0,18
275,2023-03-27T04:34:00,0.8,北東,1.6,北北東,6.3,94.6,0,0,0,18
276,2023-03-27T04:35:00,0.8,北東,1.8,東北東,6.3,94.7,0,0,0,18
277,2023-03-27T04:36:00,0.9,北東,1.8,東北東,6.4,94.7,0,0,0,18
278,2023-03-27T04:37:00,1,北東,1.8,東北東,6.4,94.8,0,0,0,18
279,2023-03-27T04:38:00,1,北東,1.8,東北東,6.4,94.9,0,0,0,18
280,2023-03-27T04:39:00,1.1,北東,1.8,東北東,6.4,95.1,0,0,0,18
281,2023-03-27T04:40:00,1.1,東北東,1.8,東北東,6.4,95.1,0,0,0,18
282,2023-03-27T04:41:00,1,東北東,1.8,東北東,6.5,95.1,0,0,0,18
283,2023-03-27T04:42:00,1,東北東,1.8,東北東,6.4,95,0,0,0,18
284,2023-03-27T04:43:00,1,東北東,1.8,東北東,6.5,95,0,0,0,18
285,2023-03-27T04:44:00,1,東北東,1.8,東北東,6.4,95,0,0,0,18
286,2023-03-27T04:45:00,1,東,2,東北東,6.4,95,0,0,0,18
287,2023-03-27T04:46:00,1,東,2,東北東,6.4,95,0,0,0,18
288,2023-03-27T04:47:00,1,東,2,東北東,6.4,95,0,0,0,18
289,2023-03-27T04:48:00,0.9,東北東,2,東北東,6.4,94.9,0,0,0,18
290,2023-03-27T04:49:00,0.9,東北東,2,東北東,6.3,94.9,0,0,0,18
291,2023-03-27T04:50:00,0.9,東北東,2,東北東,6.4,95,0,0,0,18
292,2023-03-27T04:51:00,0.9,東北東,2,東北東,6.3,95.1,0,0,0,18
293,2023-03-27T04:52:00,1,東北東,2,東北東,6.3,95.1,0,0,0,18
294,2023-03-27T04:53:00,1,東北東,2,東北東,6.3,95,0,0,0,18
295,2023-03-27T04:54:00,1.1,東北東,2,東北東,6.3,95,0,0,0,18
296,2023-03-27T04:55:00,1.1,北東,1.9,北東,6.2,95,0,0,0,18
297,2023-03-27T04:56:00,1,北東,1.9,北東,6.2,95,0,0,0,18
298,2023-03-27T04:57:00,1,北東,1.9,北東,6.2,95.1,0,0,0,18
299,2023-03-27T04:58:00,1,北東,1.9,北東,6.3,95.2,0,0,0,18
300,2023-03-27T04:59:00,1,北東,1.9,北東,6.3,95.3,0,0,0,18
301,2023-03-27T05:00:00,1,北東,1.9,北東,6.3,95.3,0,0,0,18
302,2023-03-27T05:01:00,1,東北東,1.9,北東,6.3,95.3,0,0,0,18
303,2023-03-27T05:02:00,0.9,東北東,1.9,北東,6.3,95.3,0,0,0,18
304,2023-03-27T05:03:00,0.7,東北東,1.7,北東,6.3,95.3,0,0,0,18
305,2023-03-27T05:04:00,0.6,東北東,1.6,北北東,6.3,95.3,0,0,0,18
306,2023-03-27T05:05:00,0.5,東,1.2,北東,6.3,95.2,0,0,0,18
307,2023-03-27T05:06:00,0.4,東,1.1,東北東,6.2,95.2,0,0,0,18
308,2023-03-27T05:07:00,0.4,東,1.1,東北東,6.3,95.4,0,0,0,18
309,2023-03-27T05:08:00,0.3,東,1.1,東北東,6.3,95.4,0,0,0,18
310,2023-03-27T05:09:00,0.3,東,1.1,東北東,6.3,95.3,0,0,0,18
311,2023-03-27T05:10:00,0.2,静穏,0.8,東南東,6.3,95.3,0,0,0,18
312,2023-03-27T05:11:00,0.2,静穏,0.9,東北東,6.2,95.2,0,0,0,18
313,2023-03-27T05:12:00,0.3,東,0.9,東北東,6.3,95.3,0,0,0,18
314,2023-03-27T05:13:00,0.3,東,1.1,東,6.3,95.4,0,0,0,18
315,2023-03-27T05:14:00,0.4,東,1.1,東,6.3,95.4,0,0,0,18
316,2023-03-27T05:15:00,0.4,東,1.1,東,6.3,95.3,0,0,0,18
317,2023-03-27T05:16:00,0.5,東,1.1,東,6.2,95.3,0,0,0,18
318,2023-03-27T05:17:00,0.6,東,1.1,東,6.2,95.3,0,0,0,18
319,2023-03-27T05:18:00,0.6,東,1.1,東,6.2,95.3,0,0,0,18
320,2023-03-27T05:19:00,0.6,東南東,1.1,東,6.2,95.3,0,0,0,18
321,2023-03-27T05:20:00,0.6,東南東,1.1,東,6.1,95.3,0,0,0,18
322,2023-03-27T05:21:00,0.6,東南東,1.1,東,6.1,95.2,0,0,0,18
323,2023-03-27T05:22:00,0.6,東,1.1,東,6.1,95.2,0,0,0,18
324,2023-03-27T05:23:00,0.6,東,1.2,北北東,6,95.2,0,0,0,18
325,2023-03-27T05:24:00,0.7,東,1.5,北北東,6,95.2,0,0,0,18
326,2023-03-27T05:25:00,0.7,東北東,1.5,北北東,6,95.3,0,0,0,18
327,2023-03-27T05:26:00,0.8,北東,1.5,北北東,5.9,95.3,0,0,0,18
328,2023-03-27T05:27:00,0.8,北東,1.5,北北東,5.9,95.3,0,0,0,18
329,2023-03-27T05:28:00,0.8,北東,1.5,北北東,5.9,95.2,0,0,0,18
330,2023-03-27T05:29:00,0.9,北東,2.5,東南東,5.8,95.2,0,0,0,18
331,2023-03-27T05:30:00,1.1,北東,2.5,東南東,5.9,95.3,0,0,0,18
332,2023-03-27T05:31:00,1.2,東北東,2.5,東南東,5.9,95.4,0,0,0,18
333,2023-03-27T05:32:00,1.3,東北東,2.5,東南東,5.9,95.4,0,0,0,18
334,2023-03-27T05:33:00,1.3,東北東,2.5,東南東,5.9,95.4,0,0,0,18
335,2023-03-27T05:34:00,1.3,東,2.5,東南東,5.9,95.4,0,0,0,18
336,2023-03-27T05:35:00,1.3,東,2.5,東南東,5.8,95.4,0,0,0,18
337,2023-03-27T05:36:00,1.3,東,2.5,東南東,5.8,95.4,0,0,0,18
338,2023-03-27T05:37:00,1.3,東,2.5,東南東,5.8,95.4,0,0,0,18
339,2023-03-27T05:38:00,1.3,東,2.5,東南東,5.8,95.5,0,0,0,18
340,2023-03-27T05:39:00,1.2,東,2.1,東南東,5.8,95.5,0,0,0,18
341,2023-03-27T05:40:00,1.1,東,2.1,東南東,5.8,95.5,0,0,0,18
342,2023-03-27T05:41:00,1,東,2.1,東南東,5.8,95.5,0,0,0,18
343,2023-03-27T05:42:00,0.9,東,2.1,東南東,5.9,95.6,0,0,0,18
344,2023-03-27T05:43:00,0.8,東,1.6,東,5.9,95.6,0,0,0,18
345,2023-03-27T05:44:00,0.7,東,1.6,東,6.1,95.8,0,0,0,18
346,2023-03-27T05:45:00,0.7,東,1.6,東,6,95.7,0,0,0,18
347,2023-03-27T05:46:00,0.6,東,1,東,5.9,95.5,0,0,0,18
348,2023-03-27T05:47:00,0.6,東,1,東,5.9,95.5,0,0,0,18
349,2023-03-27T05:48:00,0.6,東,1,東,5.9,95.5,0,0,0,18
350,2023-03-27T05:49:00,0.6,東,1,東,5.9,95.5,0,0,0,18
351,2023-03-27T05:50:00,0.5,東,1,東,5.9,95.5,0,0,0,18
352,2023-03-27T05:51:00,0.5,東,1,東,5.9,95.5,0,0,0,18
353,2023-03-27T05:52:00,0.5,東南東,0.9,東,5.8,95.5,0,0,0,18
354,2023-03-27T05:53:00,0.5,東南東,0.9,東,5.8,95.4,0,0,0,18
355,2023-03-27T05:54:00,0.6,東南東,1,東南東,5.8,95.4,0,0,0,18
356,2023-03-27T05:55:00,0.6,東南東,1.1,東,5.7,95.5,0,0,0,18
357,2023-03-27T05:56:00,0.6,東南東,1.1,東,5.7,95.4,0,0,0,18
358,2023-03-27T05:57:00,0.6,東南東,1.4,東,5.7,95.4,0,0,0,18
359,2023-03-27T05:58:00,0.7,東南東,1.4,東,5.6,95.4,0,0,0,18
360,2023-03-27T05:59:00,0.8,東南東,1.4,東,5.6,95.4,0,0,0,18
361,2023-03-27T06:00:00,0.9,東南東,1.9,東南東,5.6,95.4,0,0,0,18
362,2023-03-27T06:01:00,1,東,1.9,東南東,5.6,95.4,0,0,0,18
363,2023-03-27T06:02:00,1,東,1.9,東南東,5.5,95.4,0,0,0,18
364,2023-03-27T06:03:00,1.1,東,2,東南東,5.5,95.3,0,0,0,18
365,2023-03-27T06:04:00,1.2,東,2,東南東,5.4,95.3,0,0,0,18
366,2023-03-27T06:05:00,1.2,東,2,東南東,5.4,95.4,0,0,0,18
367,2023-03-27T06:06:00,1.2,東,2,東南東,5.4,95.4,0,0,0,18
368,2023-03-27T06:07:00,1.2,東,2,東南東,5.4,95.4,0,0,0,18
369,2023-03-27T06:08:00,1.2,東,2,東南東,5.4,95.5,0,0,0,18
370,2023-03-27T06:09:00,1.2,東,2,東南東,5.4,95.5,0,0,0,18
371,2023-03-27T06:10:00,1.1,東,2,東南東,5.4,95.5,0,0,0,18
372,2023-03-27T06:11:00,1,東,2,東南東,5.4,95.5,0,0,0,18
373,2023-03-27T06:12:00,0.9,東,2,東南東,5.4,95.6,0,0,0,18
374,2023-03-27T06:13:00,0.8,東,1.9,東南東,5.4,95.6,0,0,0,18
375,2023-03-27T06:14:00,0.8,東,1.6,東南東,5.4,95.7,0,0,0,18
376,2023-03-27T06:15:00,0.8,東北東,1.7,東北東,5.4,95.7,0,0,0,18
377,2023-03-27T06:16:00,0.9,東北東,2,東北東,5.4,95.7,0,0,0,18
378,2023-03-27T06:17:00,0.9,東北東,2,東北東,5.4,95.6,0,0,0,18
379,2023-03-27T06:18:00,1,東北東,2,東北東,5.4,95.7,0,0,0,18
380,2023-03-27T06:19:00,1.1,東北東,2,東北東,5.4,95.7,0,0,0,18
381,2023-03-27T06:20:00,1.2,東北東,2,東北東,5.3,95.7,0,0,0,18
382,2023-03-27T06:21:00,1.2,東北東,2,東北東,5.3,95.6,0,0,0,18
383,2023-03-27T06:22:00,1.3,東北東,2,東北東,5.3,95.6,0,0,0,18
384,2023-03-27T06:23:00,1.4,東北東,2,東北東,5.3,95.6,0,0,0,18
385,2023-03-27T06:24:00,1.3,東北東,2,東北東,5.3,95.6,0,0,0,18
386,2023-03-27T06:25:00,1.3,東北東,2,東北東,5.3,95.7,0,0,0,18
387,2023-03-27T06:26:00,1.2,東北東,1.9,東北東,5.3,95.7,0,0,0,18
388,2023-03-27T06:27:00,1.1,東北東,1.9,東北東,5.3,95.7,0,0,0,18
389,2023-03-27T06:28:00,1.1,東,1.6,南東,5.3,95.8,0,0,0,18
390,2023-03-27T06:29:00,1.1,東,1.6,南東,5.3,95.8,0,0,0,18
391,2023-03-27T06:30:00,1.1,東,1.6,南東,5.3,95.8,0,0,0,18
392,2023-03-27T06:31:00,1.1,東南東,1.6,南東,5.3,95.8,0,0,0,18
393,2023-03-27T06:32:00,1,東南東,1.6,南東,5.4,95.9,0,0,0,18
394,2023-03-27T06:33:00,1,東南東,1.6,南東,5.3,95.8,0,0,0,18
395,2023-03-27T06:34:00,1,南東,1.6,南東,5.3,95.8,0,0,0,18
396,2023-03-27T06:35:00,0.9,南東,1.6,南東,5.3,95.8,0,0,0,18
397,2023-03-27T06:36:00,0.9,南東,1.6,南東,5.4,95.8,0,0,0,18
398,2023-03-27T06:37:00,0.9,南東,1.6,南東,5.4,96,0,0,0,18
399,2023-03-27T06:38:00,0.8,南東,1.6,南南東,5.5,96.1,0,0,0,18
400,2023-03-27T06:39:00,0.7,南東,1.6,南南東,5.4,96,0,0,0,18
401,2023-03-27T06:40:00,0.6,南東,1.6,南南東,5.3,95.8,0,0,0,18
402,2023-03-27T06:41:00,0.6,東南東,1.4,南南東,5.3,95.8,0,0,0,18
403,2023-03-27T06:42:00,0.5,東南東,1.3,南南東,5.3,95.8,0,0,0,18
404,2023-03-27T06:43:00,0.5,東南東,1,南南東,5.3,95.8,0,0,0,18
405,2023-03-27T06:44:00,0.5,東,1,南南東,5.3,95.8,0,0,0,18
406,2023-03-27T06:45:00,0.5,東,0.8,東南東,5.2,95.8,0,0,0,18
407,2023-03-27T06:46:00,0.4,東北東,0.7,東北東,5.2,95.8,0,0,0,18
408,2023-03-27T06:47:00,0.4,東北東,0.7,東北東,5.1,95.8,0,0,0,18
409,2023-03-27T06:48:00,0.4,北東,0.7,東北東,5.1,95.8,0,0,0,18
410,2023-03-27T06:49:00,0.4,北東,0.7,東北東,5.1,95.8,0,0,0,18
411,2023-03-27T06:50:00,0.4,北北東,0.7,東北東,5.1,95.8,0,0,0,18
412,2023-03-27T06:51:00,0.4,北北東,0.7,東北東,5.2,95.9,0,0,0,18
413,2023-03-27T06:52:00,0.3,北北東,0.7,東北東,5.3,96.2,0,0,0,18
414,2023-03-27T06:53:00,0.3,北北東,0.7,東北東,5.2,96.1,0,0,0,18
415,2023-03-27T06:54:00,0.2,静穏,0.6,北北東,5.3,96.1,0,0,0,18
416,2023-03-27T06:55:00,0.2,静穏,0.6,北北東,5.5,96.3,0,0,0,18
417,2023-03-27T06:56:00,0.2,静穏,0.5,北東,5.3,96.3,0,0,0,18
418,2023-03-27T06:57:00,0.2,静穏,0.6,北東,5.2,95.9,0,0,0,18
419,2023-03-27T06:58:00,0.2,静穏,0.6,北東,5.2,95.8,0,0,0,18
420,2023-03-27T06:59:00,0.2,静穏,0.7,東南東,5.1,95.8,0,0,0,18
421,2023-03-27T07:00:00,0.2,静穏,0.7,東南東,5.2,95.9,0,0,0,18
422,2023-03-27T07:01:00,0.2,静穏,0.7,東南東,5.3,96.1,0,0,0,18
423,2023-03-27T07:02:00,0.2,静穏,0.7,東南東,5.2,96.1,0,0,0,18
424,2023-03-27T07:03:00,0.3,東北東,0.7,東南東,5.3,96,0,0,0,18
425,2023-03-27T07:04:00,0.4,東北東,1.2,東北東,5.3,96.1,0,0,0,18
426,2023-03-27T07:05:00,0.5,東北東,1.5,東北東,5.2,96.1,0,0,0,18
427,2023-03-27T07:06:00,0.6,東北東,1.5,東北東,5.2,96,0,0,0,18
428,2023-03-27T07:07:00,0.6,東北東,1.5,東北東,5.3,96.1,0,0,0,18
429,2023-03-27T07:08:00,0.6,東北東,1.5,東北東,5.3,96.2,0,0,0,18
430,2023-03-27T07:09:00,0.7,東北東,1.5,東北東,5.3,96.3,0,0,0,18
431,2023-03-27T07:10:00,0.7,東北東,1.5,東北東,5.3,96.2,0,0,0,18
432,2023-03-27T07:11:00,0.8,東北東,1.5,東北東,5.4,96.2,0,0,0,18